Weather Roundup
Issued by NWS Springfield, MO

Current Version | Previous Version | Text Only | Print | Product List | Glossary On
Versions: 1 2 3 4 5 6 7 8 9 10 11 12 13 14 15 16 17 18 19 20 21 22 23 24 25 26 27 28 29 30 31 32 33 34 35 36 37 38 39 40 41 42 43 44 45 46 47 48 49 50
000
NZUS99 KSGF 230307
HRRSGF

HOURLY WEATHER
NATIONAL WEATHER SERVICE SPRINGFIELD MO
1000 PM CDT WED OCT 22 2014

......SGF CWA......

CITY           SKY/WX    TMP DP  RH WIND       PRES   REMARKS
SPRINGFIELD    CLEAR     56  47  71 SE12      30.16F
JOPLIN         PTCLDY    61  52  72 SE9       30.15R
WEST PLAINS    CLEAR     44  40  85 CALM      30.23R
ROLLA          CLEAR     49  39  68 SE10      30.19S
OSAGE BEACH    CLEAR     54  43  66 SE3       30.18S
BRANSON        PTCLDY    54  46  76 SE7       30.20R

......SURROUNDING SGF CWA......

CITY           SKY/WX    TMP DP  RH WIND       PRES   REMARKS
CHANUTE        CLOUDY    64  59  83 SE7       30.11R
PARSONS        CLOUDY    67  58  72 S5        30.12R
COFFEYVILLE    MOCLDY    66  57  72 S10       30.10S
EMPORIA        CLOUDY    65  57  75 S9        30.09R
GROVE OK       CLEAR     61  55  82 SE6       30.15S
ROGERS AR      CLEAR     58  52  80 SE6       30.19R
SILOAM SPRINGS CLEAR     57  46  67 SE8       30.18R
HARRISON AR    CLEAR     51  48  89 S7        30.19S
NEAR YELLVILLE CLEAR     52  45  76 CALM      30.20F

......KANSAS AND MISSOURI......

CITY           SKY/WX    TMP DP  RH WIND       PRES   REMARKS
KANSAS CTY INT CLEAR     60  51  72 SE10      30.11S
DOWNTOWN KC    CLEAR     65  50  58 SE9       30.11R
COLUMBIA       CLEAR     52  42  69 E9        30.20R
SEDALIA        PTCLDY    54  46  74 SE7       30.17S
ST JOSEPH      CLEAR     62  51  67 S6        30.10R
ST LOUIS       PTCLDY    50  41  71 E6        30.24R
SPIRIT OF STL  CLEAR     41  40  96 CALM      30.22S
KIRKSVILLE     CLEAR     49  42  77 SE8       30.19S
WICHITA        CLOUDY    64  59  83 SW6       30.09R
TOPEKA         CLOUDY    68  58  70 SE10      30.08S
OLATHE         CLEAR     61  53  75 SE9       30.11S

......TENNESSEE......

CITY           SKY/WX    TMP DP  RH WIND       PRES   REMARKS
MEMPHIS        CLEAR     55  44  66 E6        30.18F
NASHVILLE      CLEAR     51  43  74 NE7       30.22R

......ARKANSAS.......

CITY           SKY/WX    TMP DP  RH WIND       PRES   REMARKS
FAYETTEVILLE   CLEAR     51  50  96 CALM      30.18R
FT SMITH       CLEAR     61  52  72 E3        30.16R
LITTLE ROCK    CLEAR     55  46  71 CALM      30.21R

......OKLAHOMA.......

CITY           SKY/WX    TMP DP  RH WIND       PRES   REMARKS
TULSA          CLOUDY    69  56  62 S10       30.10S
PONCA CITY     HVY RAIN  66  62  87 SW6       30.11R FOG
MCALESTER      MOCLDY    64  57  78 SE3       30.14R
OKLAHOMA CITY  LGT RAIN  63  59  87 CALM      30.12S

......IOWA............

CITY           SKY/WX    TMP DP  RH WIND       PRES   REMARKS
DES MOINES     MOCLDY    58  45  62 SE10      30.12S
QUAD CITIES    CLEAR     41  35  79 E6        30.23F

......ILLINOIS........

CITY           SKY/WX    TMP DP  RH WIND       PRES   REMARKS
QUINCY         CLEAR     47  39  74 SE6       30.22S
CHICAGO        CLEAR     40  35  83 CALM      30.27R




USA.gov is the U.S. government's official web portal to all federal, state and local government web resources and services.